吉林一号 宽幅 02A (JILIN-1 KUANFU 02A)

导读

JILIN-01 KUANFU 02A是中国于北京时间2023年8月25日08时发射的卫星,归属吉林一号卫星星座体系。作为宽幅光学遥感卫星,它凭借大幅宽成像能力,在国土测绘、农业估产、灾害监测、城市规划等领域提供高分辨率遥感数据支撑,助力我国遥感应用能力提升,服务国民经济各领域发展。

Basic Information
目录编号:
57696
目录名称:
JILIN-01 KUANFU 02A
国际标识:
2023-127A
轨道中心:
EARTH
卫星名称:
宽幅 02A
卫星全名:
吉林一号 宽幅 02A (JILIN-1 KUANFU 02A)
卫星状态:
在轨 (已飞行1023 天)
发射日期:
2023-08-25 UTC
国别 :
中国 (CN)
星等 :
--
Orbit Information
数据来源 国际轨道数据 AOE轨道数据
星历时间 2026-06-13T03:54:31+0800
7小时前
查看轨道信息
2026-06-11T03:00:00+0800
2天前
查看轨道信息
半长轴 6912.589km 6912.625km
偏心率 0.001119 0.0011338
轨道倾角 97.556° 97.556°
近地点辐角 1.049° 8.423°
升交点赤经 257.704° 255.693°
平近点角 359.076° 76.745°
近地点 526.716km 526.65km
远地点 542.188km 542.326km
周期 95.328分钟 95.329分钟
每日圈数 15.105731 15.105613
Detailed Information
卫星平台:
高分卫星平台
平衡模式:
三轴稳定
覆盖范围:
全球
运营商:
长光卫星技术股份有限公司
运营商所在国:
中国
制造商(研发单位):
长光卫星技术股份有限公司
制造商所在国:
中国
使用方式:
暂无
Satellite Introduction
“吉林一号”卫星星座(JiLin-1)是长光卫星技术有限公司在建的核心工程,是我国目前最大的商业遥感卫星星座,具备了较强的服务能力。该卫星仍在工作。
2D Orbit Map
3D Orbit Map
Orbit Altitude Analysis Chart
Orbit Inclination Analysis Chart
Orbit Comprehensive Analysis Chart
View Comprehensive Chart